�N����,����,�g�[���i���ԁj���x,�g�[�����x,��g�[���i���ցj���x,����
 2003/02/01, 0:00,23,41,6.6,7.1
 2003/02/01, 0:15,22.5,41.5,6.6,7.1
 2003/02/01, 0:30,19.9,44,6.5,7.1
 2003/02/01, 0:45,18,46.5,6.5,7.1
 2003/02/01, 1:00,16.8,49,6.4,7.1
 2003/02/01, 1:15,17.8,47,6.4,7.1
 2003/02/01, 1:30,21.3,44,6.4,7.1
 2003/02/01, 1:45,21.2,43,6.4,7.1
 2003/02/01, 2:00,21.4,43,6.4,7.1
 2003/02/01, 2:15,21,44,6.3,7.1
 2003/02/01, 2:30,21.5,44,6.3,7
 2003/02/01, 2:45,21.6,41,6.3,7
 2003/02/01, 3:00,22,41,6.4,7
 2003/02/01, 3:15,19,37.5,7.1,7
 2003/02/01, 3:30,15,42,7.3,7
 2003/02/01, 3:45,13.5,44,7.4,7
 2003/02/01, 4:00,12.2,48,7.5,7
 2003/02/01, 4:15,11.4,49.5,7.3,7
 2003/02/01, 4:30,10.7,51,7.2,7
 2003/02/01, 4:45,10.1,52.5,7.2,6.9
 2003/02/01, 5:00,9.8,54,7,7
 2003/02/01, 5:15,9.4,54.5,6.9,6.9
 2003/02/01, 5:30,9.1,55,6.9,6.9
 2003/02/01, 5:45,8.9,55.5,6.8,6.9
 2003/02/01, 6:00,8.7,56,6.7,6.9
 2003/02/01, 6:15,8.4,57,6.7,6.9
 2003/02/01, 6:30,8.2,57,6.6,6.9
 2003/02/01, 6:45,8.1,57,6.6,6.9
 2003/02/01, 7:00,8,58,6.5,6.9
 2003/02/01, 7:15,7.8,58,6.4,6.9
 2003/02/01, 7:30,7.7,59,6.5,6.9
 2003/02/01, 7:45,7.7,59,6.4,6.9
 2003/02/01, 8:00,7.5,59,6.6,6.9
 2003/02/01, 8:15,7.4,59,6.7,6.9
 2003/02/01, 8:30,7.3,60,6.8,6.9
 2003/02/01, 8:45,7.4,59,6.9,6.9
 2003/02/01, 9:00,7.5,59,6.9,6.9
 2003/02/01, 9:15,7.7,59,7,6.9
 2003/02/01, 9:30,7.9,59,7,6.9
 2003/02/01, 9:45,8.2,57.5,7.2,6.9
 2003/02/01,10:00,8.4,57,7.4,6.9
 2003/02/01,10:15,8.6,56,7.5,6.8
 2003/02/01,10:30,10.9,56,7.6,6.6
 2003/02/01,10:45,14,50.5,7.6,6.6
 2003/02/01,11:00,13.5,52,7.8,6.5
 2003/02/01,11:15,13.4,53,8.1,6.5
 2003/02/01,11:30,14.7,51,8.1,6.5
 2003/02/01,11:45,16.9,48.5,8.3,6.6
 2003/02/01,12:00,18,48,8.4,6.6
 2003/02/01,12:15,18.6,48,8.9,6.6
 2003/02/01,12:30,19.1,43,9.3,6.7
 2003/02/01,12:45,19.7,46.5,9.3,6.7
 2003/02/01,13:00,20.7,46,9.4,6.7
 2003/02/01,13:15,20,46,9.5,7.2
 2003/02/01,13:30,17.9,49,9.5,7.4
 2003/02/01,13:45,16.5,49.5,9.6,7.4
 2003/02/01,14:00,15.5,50,9.7,7.4
 2003/02/01,14:15,18.8,49,9.8,7.4
 2003/02/01,14:30,18,49,9.9,7.5
 2003/02/01,14:45,14.9,46.5,10.4,7.5
 2003/02/01,15:00,13.7,50,10.7,7.5
 2003/02/01,15:15,13.2,51.5,10.8,7.6
 2003/02/01,15:30,12.7,53,10.7,7.6
 2003/02/01,15:45,12.4,53.5,10.4,7.6
 2003/02/01,16:00,12.1,54,10.2,7.7
 2003/02/01,16:15,11.7,54,9.9,7.7
 2003/02/01,16:30,11.4,55,10,7.7
 2003/02/01,16:45,11.1,54,9.8,7.8
 2003/02/01,17:00,11,55,9.6,7.8
 2003/02/01,17:15,10.7,55,9.4,7.8
 2003/02/01,17:30,10.5,55,9.2,7.9
 2003/02/01,17:45,10.4,55,9.1,7.9
 2003/02/01,18:00,10.2,55,8.8,7.9
 2003/02/01,18:15,9.9,55,8.8,7.9
 2003/02/01,18:30,9.8,55,8.7,8
 2003/02/01,18:45,9.6,55,8.5,8
 2003/02/01,19:00,9.5,55,8.4,8
 2003/02/01,19:15,9.3,55.5,8.4,8
 2003/02/01,19:30,9.1,56,8.2,8
 2003/02/01,19:45,9.1,56,8.1,8.1
 2003/02/01,20:00,9,56,8.1,8.1
 2003/02/01,20:15,8.8,56,8,8.1
 2003/02/01,20:30,8.7,56,7.9,8.1
 2003/02/01,20:45,8.6,56.5,7.8,8.1
 2003/02/01,21:00,8.4,57,7.8,8.1
 2003/02/01,21:15,8.4,57,7.6,8.1
 2003/02/01,21:30,8.3,57,7.5,8.2
 2003/02/01,21:45,8.1,57,7.4,8.2
 2003/02/01,22:00,8,57,7.3,8.2
 2003/02/01,22:15,8,57,7.2,8.2
 2003/02/01,22:30,8,58,7.3,8.2
 2003/02/01,22:45,11.9,53.5,7.3,7.3
 2003/02/01,23:00,13.9,51,7.2,7.3
 2003/02/01,23:15,15.2,50.5,7.3,7.3
 2003/02/01,23:30,16,50,7.3,7.4
 2003/02/01,23:45,13.3,46,7.7,7
 2003/02/02, 0:00,11.2,51,7.8,7
 2003/02/02, 0:15,10.4,52.5,7.6,7
 2003/02/02, 0:30,9.8,54,7.5,7
 2003/02/02, 0:45,9.4,54.5,7.4,7
 2003/02/02, 1:00,9.1,55,7.3,7
 2003/02/02, 1:15,8.8,56,7.2,7
 2003/02/02, 1:30,8.6,56,7.2,7.1
 2003/02/02, 1:45,8.4,56.5,7.1,7.1
 2003/02/02, 2:00,8.3,56,7,7.1
 2003/02/02, 2:15,8.1,57,6.9,7.1
 2003/02/02, 2:30,7.9,57,6.9,7.1
 2003/02/02, 2:45,7.8,57.5,6.8,7.1
 2003/02/02, 3:00,7.6,58,6.8,7.1
 2003/02/02, 3:15,7.6,57.5,6.7,7.1
 2003/02/02, 3:30,7.4,58,6.7,7.1
 2003/02/02, 3:45,7.4,58,6.6,7.1
 2003/02/02, 4:00,7.3,58,6.6,7.1
 2003/02/02, 4:15,7.2,58,6.4,7.1
 2003/02/02, 4:30,7.1,58,6.4,7
 2003/02/02, 4:45,7.1,58,6.4,7
 2003/02/02, 5:00,7,58,6.3,7
 2003/02/02, 5:15,6.9,58.5,6.3,7
 2003/02/02, 5:30,6.8,59,6.3,7
 2003/02/02, 5:45,6.8,59,6.2,7
 2003/02/02, 6:00,6.7,59,6.1,7
 2003/02/02, 6:15,6.7,59,6.1,7
 2003/02/02, 6:30,6.6,59,6.1,7
 2003/02/02, 6:45,6.5,59,6,7
 2003/02/02, 7:00,6.5,59,6,7
 2003/02/02, 7:15,6.4,59,5.9,6.9
 2003/02/02, 7:30,6.4,59,5.9,6.9
 2003/02/02, 7:45,6.3,59,5.9,6.9
 2003/02/02, 8:00,6.2,60,6,6.9
 2003/02/02, 8:15,6.2,59.5,6.1,6.9
 2003/02/02, 8:30,6.3,60,6.3,6.9
 2003/02/02, 8:45,6.4,60,6.3,6.9
 2003/02/02, 9:00,6.5,59,6.3,6.9
 2003/02/02, 9:15,6.4,59,6.4,6.8
 2003/02/02, 9:30,6.6,59,6.4,6.8
 2003/02/02, 9:45,6.7,58.5,6.7,6.8
 2003/02/02,10:00,7.6,60,6.7,6.8
 2003/02/02,10:15,11.7,54.5,6.8,6.8
 2003/02/02,10:30,13.6,53,7,6.8
 2003/02/02,10:45,14.9,52,7.2,6.8
 2003/02/02,11:00,14.7,50,7.3,6.7
 2003/02/02,11:15,11.9,49.5,7.8,6.7
 2003/02/02,11:30,10.7,52,8.1,6.7
 2003/02/02,11:45,10.4,53,8.3,6.7
 2003/02/02,12:00,10,53,8.4,6.7
 2003/02/02,12:15,9.7,54.5,8.4,6.8
 2003/02/02,12:30,9.4,55,8.4,6.8
 2003/02/02,12:45,9.3,55.5,8.4,6.8
 2003/02/02,13:00,9.2,56,8.4,6.8
 2003/02/02,13:15,9.1,55.5,8.4,6.8
 2003/02/02,13:30,9,57,8.7,6.8
 2003/02/02,13:45,9.2,56.5,8.6,6.9
 2003/02/02,14:00,9.2,56,8.5,6.9
 2003/02/02,14:15,9.1,56,8.6,6.9
 2003/02/02,14:30,8.9,57,8.8,6.9
 2003/02/02,14:45,9,56,8.9,6.9
 2003/02/02,15:00,9.1,56,8.8,7
 2003/02/02,15:15,8.9,57,8.6,7
 2003/02/02,15:30,8.8,58,8.7,7
 2003/02/02,15:45,8.7,58,8.8,7.1
 2003/02/02,16:00,8.7,57,8.6,7.1
 2003/02/02,16:15,8.6,57.5,8.5,7.1
 2003/02/02,16:30,8.6,58,8.4,7.1
 2003/02/02,16:45,8.4,58.5,8.2,7.2
 2003/02/02,17:00,8.4,58,8.1,7.2
 2003/02/02,17:15,8.3,58,7.9,7.2
 2003/02/02,17:30,8.2,58,7.8,7.2
 2003/02/02,17:45,8.2,57,7.7,7.2
 2003/02/02,18:00,8.5,58,7.6,7.3
 2003/02/02,18:15,12.5,54,7.5,6.9
 2003/02/02,18:30,14.7,55,7.4,6.9
 2003/02/02,18:45,16.1,53.5,7.3,7
 2003/02/02,19:00,17.1,53,7.3,7
 2003/02/02,19:15,17.8,51.5,7.4,7
 2003/02/02,19:30,18.8,50,7.4,7
 2003/02/02,19:45,19.9,49,7.5,7
 2003/02/02,20:00,21.2,47,7.5,7.1
 2003/02/02,20:15,21.2,47.5,7.5,7.1
 2003/02/02,20:30,21.7,47,7.5,7.1
 2003/02/02,20:45,21.1,47,7.6,7.1
 2003/02/02,21:00,21.6,46,7.6,7.1
 2003/02/02,21:15,21.3,47,7.6,7.1
 2003/02/02,21:30,21.9,45,7.6,7.1
 2003/02/02,21:45,21.8,43.5,7.6,7.1
 2003/02/02,22:00,22,43,7.6,7.1
 2003/02/02,22:15,21.5,45.5,7.6,7.1
 2003/02/02,22:30,21.4,46,7.5,7.1
 2003/02/02,22:45,21.4,45.5,7.5,7.2
 2003/02/02,23:00,21.6,45,7.5,7.2
 2003/02/02,23:15,21.8,42.5,7.6,7.2
 2003/02/02,23:30,22.3,42,7.5,7.2
 2003/02/02,23:45,21,45.5,7.5,7.2
 2003/02/03, 0:00,20.9,46,7.5,7.2
 2003/02/03, 0:15,20.6,46.5,7.4,7.2
 2003/02/03, 0:30,20.9,44,7.4,7.2
 2003/02/03, 0:45,20.9,45,7.5,7.2
 2003/02/03, 1:00,21.8,43,7.5,7.2
 2003/02/03, 1:15,21.1,44.5,7.6,7.2
 2003/02/03, 1:30,21.1,44,7.6,7.2
 2003/02/03, 1:45,20.2,45.5,7.5,7.2
 2003/02/03, 2:00,19.9,46,7.6,7.2
 2003/02/03, 2:15,19.7,47,7.7,7.2
 2003/02/03, 2:30,19.7,46,7.6,7.2
 2003/02/03, 2:45,19.4,47,7.6,7.2
 2003/02/03, 3:00,19.5,47,7.7,7.2
 2003/02/03, 3:15,19.3,49,7.6,7.2
 2003/02/03, 3:30,20.7,47,7.6,7.2
 2003/02/03, 3:45,17.2,45,7.8,7.2
 2003/02/03, 4:00,15,45,7.9,7.2
 2003/02/03, 4:15,13.9,46.5,7.8,7.2
 2003/02/03, 4:30,13,48,7.8,7.2
 2003/02/03, 4:45,12.4,49.5,7.8,7.2
 2003/02/03, 5:00,11.9,50,7.6,7.2
 2003/02/03, 5:15,11.4,50.5,7.6,7.2
 2003/02/03, 5:30,11.1,51,7.5,7.2
 2003/02/03, 5:45,10.7,52,7.3,7.2
 2003/02/03, 6:00,10.4,53,7.3,7.2
 2003/02/03, 6:15,10.1,53,7.2,7.2
 2003/02/03, 6:30,9.9,54,7.2,7.2
 2003/02/03, 6:45,9.6,54,7.1,7.2
 2003/02/03, 7:00,9.4,54,7,7.2
 2003/02/03, 7:15,9.1,55,6.9,7.2
 2003/02/03, 7:30,9.6,56,6.9,7.2
 2003/02/03, 7:45,9.6,59,6.9,7.2
 2003/02/03, 8:00,10,66,6.9,7.2
 2003/02/03, 8:15,10.9,68,7,7.2
 2003/02/03, 8:30,13.2,65,7.1,7.2
 2003/02/03, 8:45,14.9,59.5,7.1,7.2
 2003/02/03, 9:00,13.4,64,7.2,7.2
 2003/02/03, 9:15,12.8,67,7.2,7.2
 2003/02/03, 9:30,13,67,7.4,7.2
 2003/02/03, 9:45,14.5,63,7.7,7.2
 2003/02/03,10:00,16.3,59,8,7.2
 2003/02/03,10:15,15.9,59,8.1,7.2
 2003/02/03,10:30,16.1,59,8.4,7.3
 2003/02/03,10:45,16.4,58.5,8.5,7.3
 2003/02/03,11:00,16.7,58,8.7,7.3
 2003/02/03,11:15,16.5,57,9,7.3
 2003/02/03,11:30,17.2,54,9.9,7.3
 2003/02/03,11:45,17,54,9.6,7.3
 2003/02/03,12:00,19.4,45,9.7,7.3
 2003/02/03,12:15,19,47.5,9.9,7.4
 2003/02/03,12:30,18.8,49,9.8,7.4
 2003/02/03,12:45,18.9,47.5,10.1,7.4
 2003/02/03,13:00,18.7,49,10.5,7.4
 2003/02/03,13:15,18.4,50,10.8,7.5
 2003/02/03,13:30,18,51,10.8,7.5
 2003/02/03,13:45,18,50.5,10.8,7.6
 2003/02/03,14:00,18.3,50,11.2,7.6
 2003/02/03,14:15,18.4,50,11.8,7.6
 2003/02/03,14:30,18.3,46,11.9,7.7
 2003/02/03,14:45,18.2,49.5,11.7,7.7
 2003/02/03,15:00,18.4,52,11.3,7.7
 2003/02/03,15:15,18.5,53,11.4,7.8
 2003/02/03,15:30,18.9,53,11.7,7.8
 2003/02/03,15:45,18.4,54.5,11.4,7.9
 2003/02/03,16:00,18.3,55,11.2,7.9
 2003/02/03,16:15,18,54,10.9,8
 2003/02/03,16:30,18.4,54,10.8,8
 2003/02/03,16:45,18.4,54,10.6,8.1
 2003/02/03,17:00,18.3,55,10.4,8.1
 2003/02/03,17:15,18.8,54,10.2,8.1
 2003/02/03,17:30,18.8,54,10.2,8.2
 2003/02/03,17:45,16.9,53.5,10,8.2
 2003/02/03,18:00,15.8,54,9.9,8.3
 2003/02/03,18:15,15.5,61.5,9.8,8.3
 2003/02/03,18:30,15.1,59,9.7,8.4
 2003/02/03,18:45,16.6,61,9.6,8.4
 2003/02/03,19:00,18.2,57,9.5,8.4
 2003/02/03,19:15,18.4,57.5,9.4,8.5
 2003/02/03,19:30,18.6,59,9.3,8.5
 2003/02/03,19:45,18.5,57.5,9.4,8.5
 2003/02/03,20:00,18.3,56,9.3,8.6
 2003/02/03,20:15,18.5,55.5,9.2,8.6
 2003/02/03,20:30,19.2,54,9.2,8.6
 2003/02/03,20:45,19.4,54,9.1,8.6
 2003/02/03,21:00,19.3,53,9.1,8.6
 2003/02/03,21:15,18.7,54,9,8.7
 2003/02/03,21:30,18.9,54,8.9,8.7
 2003/02/03,21:45,19.1,53,8.9,8.7
 2003/02/03,22:00,19.4,53,8.8,8.7
 2003/02/03,22:15,19.4,52.5,8.8,8.7
 2003/02/03,22:30,19.1,52,8.8,8.7
 2003/02/03,22:45,19.2,52.5,8.7,8.7
 2003/02/03,23:00,19.1,54,8.7,8.7
 2003/02/03,23:15,18.7,55.5,8.7,7.9
 2003/02/03,23:30,18.2,55,8.7,7.9
 2003/02/03,23:45,18.2,55,8.6,7.9
 2003/02/04, 0:00,17.7,56,8.5,7.9
 2003/02/04, 0:15,17,58.5,8.4,7.9
 2003/02/04, 0:30,15.8,59,8.3,7.9
 2003/02/04, 0:45,15.9,58,8.2,7.9
 2003/02/04, 1:00,17.6,54,8.2,7.9
 2003/02/04, 1:15,17.8,53,8.1,7.9
 2003/02/04, 1:30,18.4,55,8.1,7.9
 2003/02/04, 1:45,18,55,8.1,7.8
 2003/02/04, 2:00,18.2,53,8,7.7
 2003/02/04, 2:15,17.2,53,8,7.7
 2003/02/04, 2:30,15.6,54,8,7.7
 2003/02/04, 2:45,14.9,54.5,7.9,7.7
 2003/02/04, 3:00,14.3,55,7.8,7.7
 2003/02/04, 3:15,13.8,54,7.8,7.7
 2003/02/04, 3:30,13.3,54,7.7,7.7
 2003/02/04, 3:45,12.9,54.5,7.6,7.7
 2003/02/04, 4:00,12.5,55,7.5,7.7
 2003/02/04, 4:15,12.3,55,7.5,7.7
 2003/02/04, 4:30,11.9,55,7.5,7.6
 2003/02/04, 4:45,11.4,55,7.5,7.6
 2003/02/04, 5:00,10.9,55,7.4,7.6
 2003/02/04, 5:15,10.6,55,7.3,7.6
 2003/02/04, 5:30,10.3,56,7.2,7.6
 2003/02/04, 5:45,10,56,7.1,7.6
 2003/02/04, 6:00,9.8,56,7,7.5
 2003/02/04, 6:15,9.4,56.5,6.9,7.5
 2003/02/04, 6:30,9.3,57,6.8,7.5
 2003/02/04, 6:45,9.1,57,6.8,7.5
 2003/02/04, 7:00,8.8,57,6.6,7.4
 2003/02/04, 7:15,8.6,57.5,6.6,7.4
 2003/02/04, 7:30,8.6,58,6.6,7.4
 2003/02/04, 7:45,12.4,56.5,6.7,7.5
 2003/02/04, 8:00,11,63,6.8,7.4
 2003/02/04, 8:15,11.1,68,6.9,7.4
 2003/02/04, 8:30,11.3,68,7.1,7.4
 2003/02/04, 8:45,11.9,68,7.2,7.4
 2003/02/04, 9:00,12.2,67,7.3,7.4
 2003/02/04, 9:15,12.7,66.5,7.6,7.4
 2003/02/04, 9:30,13.1,64,7.7,7.4
 2003/02/04, 9:45,13.4,63,7.9,7.4
 2003/02/04,10:00,13.8,63,8.1,7.4
 2003/02/04,10:15,14,61.5,8.1,7.4
 2003/02/04,10:30,14.4,61,8.5,7.4
 2003/02/04,10:45,14.3,53,8.8,7.4
 2003/02/04,11:00,14.2,49,9.1,7.4
 2003/02/04,11:15,17.5,44.5,8.9,7.4
 2003/02/04,11:30,18.5,46,9.1,7.4
 2003/02/04,11:45,18.1,47,9.2,7.4
 2003/02/04,12:00,17.8,48,9.4,7.5
 2003/02/04,12:15,17.8,46,9.6,7.5
 2003/02/04,12:30,17.8,46,9.7,7.5
 2003/02/04,12:45,17.9,44.5,10.4,7.6
 2003/02/04,13:00,17.3,42,11.4,7.6
 2003/02/04,13:15,16.5,43,11.9,7.6
 2003/02/04,13:30,15.6,46,12.2,7.7
 2003/02/04,13:45,15.6,46,12.6,7.7
 2003/02/04,14:00,15.1,47,12.6,7.8
 2003/02/04,14:15,14.4,49,12.4,7.8
 2003/02/04,14:30,14,50,12.3,7.9
 2003/02/04,14:45,13.9,50.5,12.5,7.9
 2003/02/04,15:00,13.7,51,12.5,8
 2003/02/04,15:15,13.4,51,12.2,8
 2003/02/04,15:30,13.1,51,12.1,8.1
 2003/02/04,15:45,12.9,52.5,11.8,8.1
 2003/02/04,16:00,12.8,52,11.7,8.2
 2003/02/04,16:15,12.6,53,11.4,8.2
 2003/02/04,16:30,12.4,53,11.4,8.3
 2003/02/04,16:45,12.2,54,11.3,8.4
 2003/02/04,17:00,12.2,54,11.6,8.4
 2003/02/04,17:15,12.6,52,11.4,8.5
 2003/02/04,17:30,12.4,53,11.3,8.6
 2003/02/04,17:45,12.3,54,11,8.6
 2003/02/04,18:00,12,54,10.7,8.7
 2003/02/04,18:15,14.8,52,10.5,8.7
 2003/02/04,18:30,16.8,54,10.3,8.8
 2003/02/04,18:45,17.8,55,10.2,8.8
 2003/02/04,19:00,18.9,56,10.1,8.8
 2003/02/04,19:15,18.6,53.5,10.1,8.4
 2003/02/04,19:30,18.7,55,10,8.4
 2003/02/04,19:45,19.1,55,10,8.5
 2003/02/04,20:00,20.1,53,10,8.5
 2003/02/04,20:15,20.2,53,9.9,8.6
 2003/02/04,20:30,20.4,53,9.9,8.6
 2003/02/04,20:45,19.7,53,9.9,8.6
 2003/02/04,21:00,18.9,55,9.8,8.7
 2003/02/04,21:15,19,54.5,9.8,8.7
 2003/02/04,21:30,18.9,55,9.7,8.7
 2003/02/04,21:45,19.4,53.5,9.8,8.8
 2003/02/04,22:00,19.6,54,9.7,8.8
 2003/02/04,22:15,19,54.5,9.8,8.8
 2003/02/04,22:30,19,55,9.7,8.8
 2003/02/04,22:45,18.6,56.5,9.8,8.9
 2003/02/04,23:00,18.9,57,9.8,8.9
 2003/02/04,23:15,18.9,56.5,9.8,8.9
 2003/02/04,23:30,18.3,58,9.7,8.9
 2003/02/04,23:45,18,56.5,9.8,9
 2003/02/05, 0:00,17.8,59,9.7,8.3
 2003/02/05, 0:15,17.6,58.5,9.8,8.3
 2003/02/05, 0:30,17.5,57,9.6,8.3
 2003/02/05, 0:45,18,56,9.6,8.4
 2003/02/05, 1:00,18.4,58,9.5,8.4
 2003/02/05, 1:15,18.9,60,9.6,8.4
 2003/02/05, 1:30,18.5,59,9.5,8.4
 2003/02/05, 1:45,18,57,9.5,8.4
 2003/02/05, 2:00,17.8,56,9.5,8.5
 2003/02/05, 2:15,17.7,56,9.5,8.5
 2003/02/05, 2:30,18.3,54,9.4,8.5
 2003/02/05, 2:45,18.1,54.5,9.4,8.5
 2003/02/05, 3:00,18.3,54,9.3,8.5
 2003/02/05, 3:15,17.4,53.5,9.6,8.5
 2003/02/05, 3:30,15.4,52,9.6,8.6
 2003/02/05, 3:45,14.4,52.5,9.6,8.6
 2003/02/05, 4:00,13.8,53,9.5,8.6
 2003/02/05, 4:15,13.4,54,9.4,8.6
 2003/02/05, 4:30,12.9,55,9.3,8.6
 2003/02/05, 4:45,12.5,55,9.1,8.6
 2003/02/05, 5:00,12.2,56,9.1,8.6
 2003/02/05, 5:15,11.9,56.5,9,8.6
 2003/02/05, 5:30,11.6,57,8.8,8.6
 2003/02/05, 5:45,11.3,57,8.8,8.6
 2003/02/05, 6:00,11,58,8.6,8.6
 2003/02/05, 6:15,10.9,57.5,8.6,8.6
 2003/02/05, 6:30,10.7,58,8.4,8.6
 2003/02/05, 6:45,10.4,58,8.4,8.6
 2003/02/05, 7:00,10.3,58,8.2,8.6
 2003/02/05, 7:15,10.1,58,8.2,8.6
 2003/02/05, 7:30,10.3,59,8.2,8.6
 2003/02/05, 7:45,10.6,62,8.2,8.4
 2003/02/05, 8:00,10.9,68,8.2,8
 2003/02/05, 8:15,12.8,68.5,8.3,8
 2003/02/05, 8:30,12.1,70,8.4,8
 2003/02/05, 8:45,12.6,70,8.5,8.1
 2003/02/05, 9:00,12.9,69,8.7,8.1
 2003/02/05, 9:15,13.3,68,8.8,8.1
 2003/02/05, 9:30,13.6,67,8.9,8.1
 2003/02/05, 9:45,13.9,64.5,9.1,8.1
 2003/02/05,10:00,14.2,64,9.2,8.1
 2003/02/05,10:15,14.9,62.5,9.4,8.1
 2003/02/05,10:30,14.8,60,10.1,8.1
 2003/02/05,10:45,13.6,55,10.2,8.1
 2003/02/05,11:00,13,55,10.3,8.1
 2003/02/05,11:15,12.6,56,10.3,8.2
 2003/02/05,11:30,12.4,56,10.5,8.2
 2003/02/05,11:45,12.7,55.5,10.7,8.2
 2003/02/05,12:00,13.1,55,10.8,8.2
 2003/02/05,12:15,13.9,52.5,11.1,8.2
 2003/02/05,12:30,14.1,51,11.2,8.2
 2003/02/05,12:45,13.8,51,11.4,8.3
 2003/02/05,13:00,13.4,52,11.4,8.3
 2003/02/05,13:15,13.2,53,11.6,8.3
 2003/02/05,13:30,13.3,53,11.7,8.3
 2003/02/05,13:45,13.4,53,11.8,8.4
 2003/02/05,14:00,13.9,52,12.2,8.4
 2003/02/05,14:15,13.9,51.5,12.3,8.4
 2003/02/05,14:30,13.8,52,12.7,8.5
 2003/02/05,14:45,14.2,50.5,13.1,8.5
 2003/02/05,15:00,14.5,50,13.6,8.5
 2003/02/05,15:15,14.2,50.5,13.4,8.6
 2003/02/05,15:30,13.7,53,12.9,8.6
 2003/02/05,15:45,13.1,54,12.5,8.6
 2003/02/05,16:00,12.8,55,12.3,8.7
 2003/02/05,16:15,12.7,54.5,12.1,8.7
 2003/02/05,16:30,12.4,55,11.8,8.8
 2003/02/05,16:45,12.2,55,11.6,8.8
 2003/02/05,17:00,12,55,11.3,8.8
 2003/02/05,17:15,11.8,55.5,11.1,8.9
 2003/02/05,17:30,11.7,56,10.8,8.9
 2003/02/05,17:45,11.5,56,10.6,8.9
 2003/02/05,18:00,11.3,56,10.4,9
 2003/02/05,18:15,11.2,56,10.4,9
 2003/02/05,18:30,11,56,10.2,9
 2003/02/05,18:45,13.4,56,10.1,9.1
 2003/02/05,19:00,15,55,10,9.1
 2003/02/05,19:15,16.4,53.5,9.9,9.1
 2003/02/05,19:30,17.4,53,9.8,9.1
 2003/02/05,19:45,17.8,52.5,9.8,9.2
 2003/02/05,20:00,18.1,54,9.8,9.2
 2003/02/05,20:15,18.2,52,9.6,9.2
 2003/02/05,20:30,18.5,52,9.6,9.2
 2003/02/05,20:45,18.4,52.5,9.6,9.2
 2003/02/05,21:00,18.7,52,9.5,9.2
 2003/02/05,21:15,18.5,53,9.6,9.3
 2003/02/05,21:30,18.8,53,9.6,9.3
 2003/02/05,21:45,18.8,54,9.5,9.3
 2003/02/05,22:00,18.8,54,9.4,9.3
 2003/02/05,22:15,18.9,53.5,9.4,9.3
 2003/02/05,22:30,18.9,54,9.4,9.3
 2003/02/05,22:45,18.9,53.5,9.4,9.3
 2003/02/05,23:00,18.7,54,9.4,9.3
 2003/02/05,23:15,18.5,54,9.2,9.3
 2003/02/05,23:30,18.5,53,9.2,9.3
 2003/02/05,23:45,18.4,53,9.1,9.3
 2003/02/06, 0:00,18.5,54,9.1,9.3
 2003/02/06, 0:15,18,55.5,9.1,9.3
 2003/02/06, 0:30,17.9,56,9,9.3
 2003/02/06, 0:45,18,58,8.9,9.3
 2003/02/06, 1:00,17.7,60,8.9,9.3
 2003/02/06, 1:15,17.8,59.5,8.9,9.2
 2003/02/06, 1:30,17.7,58,8.8,9.2
 2003/02/06, 1:45,17.6,58,8.8,9.2
 2003/02/06, 2:00,18.3,56,8.7,9.2
 2003/02/06, 2:15,18.2,55.5,8.6,9.2
 2003/02/06, 2:30,18.3,55,8.6,9.2
 2003/02/06, 2:45,17.7,55.5,8.6,9.1
 2003/02/06, 3:00,17.5,55,8.7,9.1
 2003/02/06, 3:15,16,56,8.6,9.1
 2003/02/06, 3:30,15.2,56,8.6,9.1
 2003/02/06, 3:45,14.6,55.5,8.6,9.1
 2003/02/06, 4:00,13.6,53,8.7,9.1
 2003/02/06, 4:15,13,53,8.5,9.1
 2003/02/06, 4:30,12.5,53,8.5,9
 2003/02/06, 4:45,12.1,54,8.4,9
 2003/02/06, 5:00,11.7,54,8.4,9
 2003/02/06, 5:15,11.4,54.5,8.4,9
 2003/02/06, 5:30,11.1,55,8.2,9
 2003/02/06, 5:45,10.8,55,8.1,9
 2003/02/06, 6:00,10.5,56,8,9
 2003/02/06, 6:15,10.3,55,7.9,8.9
 2003/02/06, 6:30,10.1,55,7.8,8.9
 2003/02/06, 6:45,9.9,56,7.7,8.9
 2003/02/06, 7:00,9.6,56,7.6,8.9
 2003/02/06, 7:15,9.4,56,7.6,8.9
 2003/02/06, 7:30,11,56,7.5,8.8
 2003/02/06, 7:45,10.4,60,7.6,8.3
 2003/02/06, 8:00,11.2,66,7.7,7.7
 2003/02/06, 8:15,11.9,66,7.8,7.7
 2003/02/06, 8:30,11.6,68,7.9,7.7
 2003/02/06, 8:45,11.6,68,8.1,7.7
 2003/02/06, 9:00,12,68,8.2,7.8
 2003/02/06, 9:15,12.5,67.5,8.4,7.8
 2003/02/06, 9:30,12.9,65,8.6,7.8
 2003/02/06, 9:45,13,64.5,8.8,7.8
 2003/02/06,10:00,13.2,63,8.9,7.8
 2003/02/06,10:15,13.5,62.5,9,7.8
 2003/02/06,10:30,13.8,60,9.1,7.8
 2003/02/06,10:45,13.8,58,9.2,7.8
 2003/02/06,11:00,14.1,56,9.2,7.8
 2003/02/06,11:15,14.9,54.5,9.5,7.8
 2003/02/06,11:30,14.8,53,9.6,7.8
 2003/02/06,11:45,14.8,54,9.8,7.9
 2003/02/06,12:00,14.7,55,9.9,7.9
 2003/02/06,12:15,14.6,55.5,9.9,7.9
 2003/02/06,12:30,14.9,54,10,7.9
 2003/02/06,12:45,14.9,55,10.2,7.9
 2003/02/06,13:00,14.9,55,10.3,8
 2003/02/06,13:15,14.6,57,10.4,8
 2003/02/06,13:30,16,55,10.6,8
 2003/02/06,13:45,17.5,52,10.8,8.1
 2003/02/06,14:00,18.1,50,11.2,8.1
 2003/02/06,14:15,17.9,49,11.6,8.1
 2003/02/06,14:30,17.8,49,11.3,8.1
 2003/02/06,14:45,18.5,48.5,12,8.2
 2003/02/06,15:00,18.9,49,12.5,8.2
 2003/02/06,15:15,19.1,49,12.8,8.2
 2003/02/06,15:30,19.2,49,12.6,8.3
 2003/02/06,15:45,19.4,48,12.2,8.3
 2003/02/06,16:00,18.5,51,11.9,8.4
 2003/02/06,16:15,17.3,54,11.7,8.4
 2003/02/06,16:30,16.5,55,11.5,8.4
 2003/02/06,16:45,15.9,55.5,11.4,8.5
 2003/02/06,17:00,15.4,56,11.2,8.5
 2003/02/06,17:15,15.9,57.5,10.9,8.6
 2003/02/06,17:30,16.4,57,10.7,8.6
 2003/02/06,17:45,15.1,57,10.9,8.6
 2003/02/06,18:00,14,52,11,8.7
 2003/02/06,18:15,13.8,55.5,10.9,8.7
 2003/02/06,18:30,13.4,58,10.6,8.8
 2003/02/06,18:45,15.6,58.5,10.4,8.8
 2003/02/06,19:00,17.5,58,10.3,8.8
 2003/02/06,19:15,18.1,58.5,10.2,8.9
 2003/02/06,19:30,18.2,60,10.1,8.9
 2003/02/06,19:45,18,59.5,9.9,8.9
 2003/02/06,20:00,18.1,60,9.9,9
 2003/02/06,20:15,18.1,60,9.9,9
 2003/02/06,20:30,17.9,60,9.7,9
 2003/02/06,20:45,18.1,57.5,9.6,9
 2003/02/06,21:00,17.9,59,9.6,9
 2003/02/06,21:15,18.2,58,9.5,9
 2003/02/06,21:30,17.5,58,9.4,9.1
 2003/02/06,21:45,17.5,57,9.4,9.1
 2003/02/06,22:00,18.6,56,9.3,9.1
 2003/02/06,22:15,18.6,54.5,9.2,9.1
 2003/02/06,22:30,18.4,55,9.2,9.1
 2003/02/06,22:45,18.5,58.5,9.1,9.1
 2003/02/06,23:00,18.3,53,9.1,9.1
 2003/02/06,23:15,18.4,53.5,9,8.4
 2003/02/06,23:30,18.3,53,9,8.5
 2003/02/06,23:45,18.5,53,8.9,8.5
 2003/02/07, 0:00,18.3,53,8.9,8.5
 2003/02/07, 0:15,17.9,52.5,8.8,8.5
 2003/02/07, 0:30,17.5,52,8.8,8.5
 2003/02/07, 0:45,17.4,53,8.6,8.5
 2003/02/07, 1:00,17.1,54,8.6,8.5
 2003/02/07, 1:15,17.2,53,8.5,8.5
 2003/02/07, 1:30,17.3,53,8.4,8.4
 2003/02/07, 1:45,17.4,52.5,8.4,8.4
 2003/02/07, 2:00,17.2,53,8.3,8.4
 2003/02/07, 2:15,17.2,52.5,8.2,8.4
 2003/02/07, 2:30,17.1,52,8.2,8.4
 2003/02/07, 2:45,17.4,51,8.1,8.4
 2003/02/07, 3:00,17.4,50,8.1,8.3
 2003/02/07, 3:15,17.8,50,8.1,8.3
 2003/02/07, 3:30,18.1,50,8,8.3
 2003/02/07, 3:45,17.5,51,8.1,8.2
 2003/02/07, 4:00,15,47,8.2,8.2
 2003/02/07, 4:15,13.8,49.5,8.1,8.2
 2003/02/07, 4:30,12.9,51,8.1,8.2
 2003/02/07, 4:45,12.2,52,8.1,8.1
 2003/02/07, 5:00,11.8,52,8,8.1
 2003/02/07, 5:15,11.4,53,7.8,8.1
 2003/02/07, 5:30,11,53,7.7,8.1
 2003/02/07, 5:45,10.7,54,7.6,8.1
 2003/02/07, 6:00,10.3,54,7.5,8
 2003/02/07, 6:15,10.1,54.5,7.3,8
 2003/02/07, 6:30,9.8,55,7.3,8
 2003/02/07, 6:45,9.6,55,7.2,8
 2003/02/07, 7:00,9.4,55,7,8
 2003/02/07, 7:15,9.1,55.5,7,7.9
 2003/02/07, 7:30,8.9,56,7,7.9
 2003/02/07, 7:45,11.8,55.5,6.9,7.2
 2003/02/07, 8:00,10.9,60,6.9,7.1
 2003/02/07, 8:15,11.1,63.5,7.2,7.1
 2003/02/07, 8:30,11,65,7.2,7.1
 2003/02/07, 8:45,11.1,66.5,7.2,7.1
 2003/02/07, 9:00,11.3,66,7.4,7.1
 2003/02/07, 9:15,11.4,67,7.7,7.1
 2003/02/07, 9:30,11.7,67,7.8,7.1
 2003/02/07, 9:45,12.2,64.5,7.9,7.1
 2003/02/07,10:00,12.8,63,8,7.1
 2003/02/07,10:15,13.3,61,8.1,7.1
 2003/02/07,10:30,13.7,59,8.4,7.1
 2003/02/07,10:45,14.2,57,8.6,7.1
 2003/02/07,11:00,14.6,57,8.8,7.1
 2003/02/07,11:15,14.9,55,9.2,7.2
 2003/02/07,11:30,17.1,49,9.5,7.2
 2003/02/07,11:45,17,50,9.6,7.2
 2003/02/07,12:00,17,50,9.9,7.2
 2003/02/07,12:15,17.1,49,10.1,7.2
 2003/02/07,12:30,16.9,44,10.3,7.2
 2003/02/07,12:45,17.3,42,10.6,7.3
 2003/02/07,13:00,17.7,45,10.8,7.3
 2003/02/07,13:15,17.6,41.5,11,7.3
 2003/02/07,13:30,17.7,43,11.4,7.4
 2003/02/07,13:45,18,44,11.8,7.4
 2003/02/07,14:00,18.4,45,12.2,7.4
 2003/02/07,14:15,18.9,45.5,12.6,7.5
 2003/02/07,14:30,18.9,45,13,7.5
 2003/02/07,14:45,19,45.5,13.2,7.6
 2003/02/07,15:00,19.1,45,13.7,7.6
 2003/02/07,15:15,19.5,43.5,14.1,7.7
 2003/02/07,15:30,18.9,42,14,7.7
 2003/02/07,15:45,18.5,42.5,13.4,7.8
 2003/02/07,16:00,17.8,44,13.1,7.8
 2003/02/07,16:15,17.1,46.5,12.8,7.9
 2003/02/07,16:30,16.4,47,12.6,8
 2003/02/07,16:45,16,48,12.4,8
 2003/02/07,17:00,15.6,48,12.5,8.1
 2003/02/07,17:15,14.8,43.5,12.4,8.1
 2003/02/07,17:30,14.4,47,12.6,8.2
 2003/02/07,17:45,14.3,49,12.6,8.2
 2003/02/07,18:00,14.1,48,12.3,8.3
 2003/02/07,18:15,14,49,12.1,8.4
 2003/02/07,18:30,13.8,50,11.9,8.5
 2003/02/07,18:45,13.9,53.5,11.6,8.5
 2003/02/07,19:00,13.9,53,11.4,8.6
 2003/02/07,19:15,17,49.5,11.2,8.6
 2003/02/07,19:30,18.7,50,11.2,8.7
 2003/02/07,19:45,19.6,52.5,11.1,8.8
 2003/02/07,20:00,20.1,56,11,8.8
 2003/02/07,20:15,19.8,57.5,10.9,8.9
 2003/02/07,20:30,19.6,56,10.9,8.9
 2003/02/07,20:45,19,56.5,10.8,8.9
 2003/02/07,21:00,19.1,55,10.7,9
 2003/02/07,21:15,19,55,10.8,9.1
 2003/02/07,21:30,19.5,54,10.7,9.1
 2003/02/07,21:45,19.5,53.5,10.6,9.1
 2003/02/07,22:00,19.6,53,10.6,9.2
 2003/02/07,22:15,19.2,52,10.5,9.2
 2003/02/07,22:30,18.9,53,10.4,9.2
 2003/02/07,22:45,18.5,53.5,10.4,9.3
 2003/02/07,23:00,18.6,54,10.3,9.3
 2003/02/07,23:15,18.5,56,10.3,9.3
 2003/02/07,23:30,18.3,55,10.2,9.4
 2003/02/07,23:45,18.3,54.5,10.1,9.4
 2003/02/08, 0:00,18.3,54,10.1,9.4
 2003/02/08, 0:15,18.1,55,10,9.4
 2003/02/08, 0:30,18.2,56,10,9.5
 2003/02/08, 0:45,17.9,56,9.9,9.5
 2003/02/08, 1:00,18,55,9.8,9.5
 2003/02/08, 1:15,18.4,54,9.9,9.5
 2003/02/08, 1:30,19.4,52,9.9,9.6
 2003/02/08, 1:45,19.5,51.5,9.8,9.6
 2003/02/08, 2:00,19.6,52,9.8,9.6
 2003/02/08, 2:15,19.6,51,9.9,9.6
 2003/02/08, 2:30,19.7,50,9.8,9.6
 2003/02/08, 2:45,19.6,49,9.7,9.6